• Join FlightAware (Why Join?)
  • Login
  • US Flag 
08:05AM EST


 

Airport Tracker/Info


-or-


 

Live Flight TrackerFlight Track Log ✈ EJA122 ✈ 02-Jun-2013 ✈ KLAN - KSLN

Flight Track Log - Related Links

Times and Time Zones

All times are in EDT time to prevent confusion due to time zone crossing. See the EJA122 flight status page for this flight to view local times or setup timezone preferences in your user account.

Time Position Orientation Groundspeed Altitude Reporting Facility
EDT Latitude Longitude Course Direction KTS MPH feet Rate Location/Type
07:08PM 42.7794 -84.6678 271° West 230 265 4,500  Level Chicago Center
07:09PM 42.7800 -84.7550 271° West 231 266 7,400 2,613 Climbing Chicago Center
07:10PM 42.7825 -84.8592 272° West 265 305 9,900 1,548 Climbing Chicago Center
07:11PM 42.7839 -84.9847 271° West 333 383 10,600 1,306 Climbing Chicago Center
07:12PM 42.7842 -85.1092 270° West 332 382 12,600 1,984 Climbing Chicago Center
07:13PM 42.7858 -85.2322 271° West 325 374 14,700 1,887 Climbing Chicago Center
07:14PM 42.7581 -85.3469 252° West 321 369 16,500 1,452 Climbing Chicago Center
07:15PM 42.7247 -85.4847 252° West 318 366 17,700 1,065 Climbing Chicago Center
07:16PM 42.6961 -85.6028 252° West 325 374 18,700 1,016 Climbing Chicago Center
07:17PM 42.6656 -85.7239 251° West 334 384 19,800 1,016 Climbing Chicago Center
07:18PM 42.6347 -85.8506 252° West 348 400 20,800 919 Climbing Chicago Center
07:19PM 42.6025 -85.9786 251° West 354 407 21,700 1,016 Climbing Chicago Center
07:20PM 42.5719 -86.1067 252° West 356 410 22,900 1,065 Climbing Chicago Center
07:21PM 42.5386 -86.2331 250° West 355 409 23,900 1,113 Climbing Chicago Center
07:22PM 42.4997 -86.3883 251° West 362 417 25,200 1,113 Climbing Chicago Center
07:23PM 42.4664 -86.5169 251° West 361 415 26,200 1,016 Climbing Chicago Center
07:25PM 42.4392 -86.6478 254° West 364 419 27,300 968 Climbing Chicago Center
07:26PM 42.4339 -86.7806 267° West 365 420 28,200 919 Climbing Chicago Center
07:27PM 42.4247 -86.9147 265° West 361 415 29,200 1,113 Climbing Chicago Center
07:28PM 42.3783 -87.0722 248° West 378 435 30,500 1,113 Climbing Chicago Center
07:29PM 42.3419 -87.2092 250° West 386 444 31,500 726 Climbing Chicago Center
07:30PM 42.3031 -87.3467 249° West 394 453 32,000 242 Climbing Chicago Center
07:31PM 42.2628 -87.4917 249° West 412 474 32,000  Level Chicago Center
07:32PM 42.2219 -87.6369 249° West 417 480 32,000  Level Chicago Center
07:33PM 42.1728 -87.8094 249° West 415 478 32,000 387 Level Chicago Center
07:34PM 42.1331 -87.9508 249° West 409 471 32,800 823 Climbing Chicago Center
07:35PM 42.0939 -88.0892 249° West 402 463 33,700 581 Climbing Chicago Center
07:36PM 42.0533 -88.2233 248° West 393 452 34,000 145 Climbing Chicago Center
07:37PM 42.0047 -88.3928 249° West 406 467 34,000  Level Chicago Center
07:38PM 41.9619 -88.5356 248° West 415 478 34,000  Level Chicago Center
07:39PM 41.9208 -88.6781 249° West 415 478 34,000  Level Chicago Center
07:40PM 41.8794 -88.8192 249° West 412 474 34,000  Level Chicago Center
07:41PM 41.8364 -88.9619 248° West 416 479 34,000  Level Chicago Center
07:42PM 41.7856 -89.1328 248° West 416 479 34,000  Level Chicago Center
07:43PM 41.7425 -89.2733 248° West 413 475 34,000  Level Chicago Center
07:44PM 41.7008 -89.4144 248° West 412 474 34,000  Level Chicago Center
07:45PM 41.6583 -89.5539 248° West 410 472 34,000  Level Chicago Center
07:46PM 41.6164 -89.6950 248° West 415 478 34,000  Level Chicago Center
07:47PM 41.5650 -89.8636 248° West 413 475 34,000  Level Chicago Center
07:48PM 41.5211 -90.0042 247° West 412 474 34,000  Level Chicago Center
07:49PM 41.4778 -90.1447 248° West 412 474 34,000  Level Chicago Center
07:50PM 41.4339 -90.2856 247° West 413 475 34,000  Level Chicago Center
07:51PM 41.3894 -90.4258 247° West 413 475 34,000  Level Chicago Center
07:52PM 41.3464 -90.5650 248° West 412 474 34,000  Level Chicago Center
07:53PM 41.2939 -90.7339 248° West 412 474 34,000  Level Chicago Center
07:55PM 41.2522 -90.8747 249° West 411 473 34,000  Level Chicago Center
07:56PM 41.2114 -91.0136 249° West 408 470 34,000  Level Chicago Center
07:57PM 41.1694 -91.1531 248° West 408 470 34,000  Level Chicago Center
07:58PM 41.1281 -91.2917 248° West 406 467 34,000  Level Chicago Center
07:59PM 41.0778 -91.4597 248° West 409 471 34,000  Level Chicago Center
08:00PM 41.0353 -91.5997 248° West 410 472 34,000  Level Chicago Center
08:01PM 40.9933 -91.7389 248° West 412 474 34,000  Level Chicago Center
08:02PM 40.9497 -91.8797 248° West 416 479 34,000  Level Chicago Center
08:03PM 40.9069 -92.0200 248° West 415 478 34,000  Level Chicago Center
08:04PM 40.8547 -92.1886 248° West 418 481 34,000  Level Chicago Center
08:05PM 40.8111 -92.3281 248° West 416 479 34,000  Level Chicago Center
08:06PM 40.7672 -92.4661 247° West 414 476 34,000  Level Chicago Center
08:07PM 40.7236 -92.6064 248° West 418 481 34,000  Level Chicago Center
08:08PM 40.6708 -92.7728 247° West 418 481 34,000  Level Chicago Center
08:09PM 40.6272 -92.9117 248° West 418 481 34,000  Level Chicago Center
08:10PM 40.5817 -93.0506 247° West 419 482 34,000  Level Chicago Center
08:11PM 40.5375 -93.1897 247° West 419 482 34,000  Level Chicago Center
08:12PM 40.4928 -93.3294 247° West 420 483 34,000  Level Chicago Center
08:13PM 40.4383 -93.4964 247° West 421 484 34,000  Level Chicago Center
08:14PM 40.3917 -93.6378 247° West 425 489 34,000  Level Chicago Center
08:15PM 40.3453 -93.7767 246° West 423 487 34,000  Level Kansas City Center
08:16PM 40.2994 -93.9194 247° West 426 490 34,000  Level Kansas City Center
08:17PM 40.2522 -94.0608 246° West 428 493 34,000  Level Kansas City Center
08:18PM 40.1997 -94.2181 246° West 428 493 34,000  Level Kansas City Center
08:19PM 40.1456 -94.3756 246° West 427 491 34,000  Level Kansas City Center
08:20PM 40.1000 -94.5139 247° West 432 497 34,000  Level Kansas City Center
08:21PM 40.0464 -94.6742 246° West 432 497 34,000 -290 Level Kansas City Center
08:22PM 39.9994 -94.8111 246° West 434 499 33,400 -823 Descending Kansas City Center
08:23PM 39.9442 -94.9692 246° West 430 495 32,300 -1,161 Descending Kansas City Center
08:24PM 39.8881 -95.1014 241° Southwest 436 502 31,000 -1,463 Descending Kansas City Center
08:25PM 39.8244 -95.2550 242° Southwest 435 501 29,300 -1,512 Descending Kansas City Center
08:27PM 39.7697 -95.3881 242° Southwest 437 503 27,900 -1,355 Descending Kansas City Center
08:28PM 39.7144 -95.5197 241° Southwest 436 502 26,500 -1,500 Descending Kansas City Center
08:29PM 39.6519 -95.6694 242° Southwest 427 491 24,800 -1,220 Descending Kansas City Center
08:30PM 39.5972 -95.7997 241° Southwest 431 496 24,000 -390 Descending Kansas City Center
08:31PM 39.5314 -95.9522 241° Southwest 433 498 24,000  Level Kansas City Center
08:32PM 39.4769 -96.0806 241° Southwest 428 493 24,000  Level Kansas City Center
08:33PM 39.4164 -96.2203 241° Southwest 428 493 24,000  Level Kansas City Center
08:34PM 39.3583 -96.3533 241° Southwest 426 490 24,000 -488 Level Kansas City Center
08:35PM 39.2933 -96.5072 241° Southwest 425 489 23,000 -1,902 Descending Kansas City Center
08:36PM 39.2400 -96.6289 241° Southwest 413 475 20,100 -3,387 Descending Kansas City Center
08:37PM 39.1808 -96.7656 241° Southwest 396 456 16,000 -3,854 Descending Kansas City Center
08:38PM 39.1319 -96.8825 242° Southwest 351 404 12,200 -2,780 Descending Kansas City Center
08:39PM 39.0917 -96.9742 241° Southwest 306 352 10,300 -1,984 Descending Kansas City Center
08:40PM 39.0525 -97.0622 240° Southwest 276 318 8,100 -2,081 Descending Kansas City Center
08:41PM 39.0131 -97.1531 241° Southwest 279 321 6,000 -1,512 Descending Kansas City Center
08:42PM 38.9742 -97.2406 240° Southwest 270 311 5,000 -488 Descending Kansas City Center
08:43PM 38.9342 -97.3311 240° Southwest 277 319 5,000 -290 Level Kansas City Center
08:44PM 38.8978 -97.4142 241° Southwest 277 319 4,400 -488 Descending Kansas City Center
08:45PM 38.8658 -97.4847 240° Southwest 217 250 4,000 -244 Descending Kansas City Center
08:46PM 38.8339 -97.5361 231° Southwest 180 207 3,900 -439 Descending Kansas City Center
08:47PM 38.7875 -97.5708 210° Southwest 194 223 3,100 -439 Descending Kansas City Center
08:48PM 38.7406 -97.5881 196° South 170 196 3,000 -387 Descending Kansas City Center
08:49PM 38.7375 -97.6378 266° West 160 184 2,300 -683 Descending Kansas City Center
08:50PM 38.7717 -97.6472 348° North 144 166 1,600 -689 Descending Kansas City Center